contact: severine.martini@mio.osupytheas.fr, dominique.lefevre@mio.osupytheas.fr
Project:EMSO Ligure-ouest http://www.emso-fr.org/EMSO-France
Sensor Microcat Sea-Bird SBE37 SMP,  Serial 57510 
DOI : "https://doi.org/10.17882/97948" 
Title:EMSO Ligure Ouest : Data Bathybot capteur Microcat - deploiement 2023-04-28
Datetime,Profondeur,Latitude,Longitude,Temperature,Conductivite,Pression,Salinite
time,m,degree_north,degree_east,degree_C,S/m,db,PSU 
2023-12-09T00:00:49,2420,42.8014,5.9826,13.2982,4.59904,2453.514,38.4863
2023-12-09T00:03:49,2420,42.8014,5.9826,13.2981,4.59905,2453.499,38.4864
2023-12-09T00:06:49,2420,42.8014,5.9826,13.2982,4.59906,2453.537,38.4864
2023-12-09T00:09:49,2420,42.8014,5.9826,13.2980,4.59906,2453.559,38.4866
2023-12-09T00:12:49,2420,42.8014,5.9826,13.2977,4.59909,2453.559,38.4872
2023-12-09T00:15:49,2420,42.8014,5.9826,13.2979,4.59907,2453.559,38.4868
2023-12-09T00:18:49,2420,42.8014,5.9826,13.2978,4.59904,2453.559,38.4866
2023-12-09T00:21:49,2420,42.8014,5.9826,13.2980,4.59918,2453.537,38.4878
2023-12-09T00:24:49,2420,42.8014,5.9826,13.2980,4.59908,2453.514,38.4868
2023-12-09T00:27:49,2420,42.8014,5.9826,13.2979,4.59906,2453.537,38.4868
2023-12-09T00:30:50,2420,42.8014,5.9826,13.2983,4.59905,2453.559,38.4862
2023-12-09T00:33:49,2420,42.8014,5.9826,13.2981,4.59911,2453.514,38.4870
2023-12-09T00:36:49,2420,42.8014,5.9826,13.2978,4.59912,2453.514,38.4874
2023-12-09T00:39:49,2420,42.8014,5.9826,13.2982,4.59909,2453.522,38.4867
2023-12-09T00:42:49,2420,42.8014,5.9826,13.2981,4.59910,2453.559,38.4869
2023-12-09T00:45:49,2420,42.8014,5.9826,13.2978,4.59910,2453.551,38.4872
2023-12-09T00:48:49,2420,42.8014,5.9826,13.2978,4.59919,2453.559,38.4881
2023-12-09T00:51:49,2420,42.8014,5.9826,13.2982,4.59922,2453.559,38.4879
2023-12-09T00:54:49,2420,42.8014,5.9826,13.2978,4.59911,2453.559,38.4874
2023-12-09T00:57:49,2420,42.8014,5.9826,13.2985,4.59926,2453.582,38.4880
2023-12-09T01:00:49,2420,42.8014,5.9826,13.2978,4.59915,2453.522,38.4877
2023-12-09T01:03:49,2420,42.8014,5.9826,13.2982,4.59912,2453.537,38.4870
2023-12-09T01:06:49,2420,42.8014,5.9826,13.2981,4.59918,2453.537,38.4877
2023-12-09T01:09:49,2420,42.8014,5.9826,13.2980,4.59907,2453.559,38.4867
2023-12-09T01:12:49,2420,42.8014,5.9826,13.2983,4.59917,2453.596,38.4874
2023-12-09T01:15:49,2420,42.8014,5.9826,13.2977,4.59928,2453.559,38.4890
2023-12-09T01:18:49,2420,42.8014,5.9826,13.2982,4.59917,2453.582,38.4875
2023-12-09T01:21:49,2420,42.8014,5.9826,13.2978,4.59917,2453.544,38.4879
2023-12-09T01:24:49,2420,42.8014,5.9826,13.2979,4.59914,2453.544,38.4875
2023-12-09T01:27:49,2420,42.8014,5.9826,13.2985,4.59909,2453.582,38.4864
2023-12-09T01:30:49,2420,42.8014,5.9826,13.2982,4.59920,2453.582,38.4877
2023-12-09T01:33:49,2420,42.8014,5.9826,13.2979,4.59914,2453.582,38.4875
2023-12-09T01:36:49,2420,42.8014,5.9826,13.2980,4.59922,2453.559,38.4882
2023-12-09T01:39:49,2420,42.8014,5.9826,13.2982,4.59912,2453.604,38.4870
2023-12-09T01:42:49,2420,42.8014,5.9826,13.2979,4.59929,2453.627,38.4889
2023-12-09T01:45:49,2420,42.8014,5.9826,13.2978,4.59927,2453.567,38.4888
2023-12-09T01:48:49,2420,42.8014,5.9826,13.2987,4.59931,2453.641,38.4883
2023-12-09T01:51:49,2420,42.8014,5.9826,13.2988,4.59938,2453.604,38.4888
2023-12-09T01:54:49,2420,42.8014,5.9826,13.2996,4.59955,2453.590,38.4897
2023-12-09T01:57:49,2420,42.8014,5.9826,13.2985,4.59996,2453.582,38.4946
2023-12-09T02:00:49,2420,42.8014,5.9826,13.2984,4.59933,2453.604,38.4887
2023-12-09T02:03:49,2420,42.8014,5.9826,13.2982,4.59929,2453.604,38.4886
2023-12-09T02:06:49,2420,42.8014,5.9826,13.2982,4.59924,2453.627,38.4881
2023-12-09T02:09:49,2420,42.8014,5.9826,13.2981,4.59922,2453.604,38.4880
2023-12-09T02:12:49,2420,42.8014,5.9826,13.2979,4.59925,2453.604,38.4884
2023-12-09T02:15:49,2420,42.8014,5.9826,13.2982,4.59931,2453.627,38.4887
2023-12-09T02:18:49,2420,42.8014,5.9826,13.2982,4.59932,2453.604,38.4889
2023-12-09T02:21:49,2420,42.8014,5.9826,13.2979,4.59945,2453.649,38.4904
2023-12-09T02:24:49,2420,42.8014,5.9826,13.2978,4.59922,2453.627,38.4883
2023-12-09T02:27:49,2420,42.8014,5.9826,13.2982,4.59928,2453.627,38.4886
2023-12-09T02:30:50,2420,42.8014,5.9826,13.2979,4.59918,2453.612,38.4879
2023-12-09T02:33:49,2420,42.8014,5.9826,13.2978,4.59923,2453.627,38.4884
2023-12-09T02:36:49,2420,42.8014,5.9826,13.2982,4.59926,2453.627,38.4883
2023-12-09T02:39:49,2420,42.8014,5.9826,13.2982,4.59933,2453.672,38.4889
2023-12-09T02:42:49,2420,42.8014,5.9826,13.2980,4.59926,2453.649,38.4885
2023-12-09T02:45:49,2420,42.8014,5.9826,13.2982,4.59930,2453.664,38.4887
2023-12-09T02:48:49,2420,42.8014,5.9826,13.2981,4.59971,2453.649,38.4927
2023-12-09T02:51:49,2420,42.8014,5.9826,13.2981,4.59940,2453.627,38.4897
2023-12-09T02:54:49,2420,42.8014,5.9826,13.2982,4.59942,2453.649,38.4898
2023-12-09T02:57:49,2420,42.8014,5.9826,13.2982,4.59954,2453.612,38.4909
2023-12-09T03:00:49,2420,42.8014,5.9826,13.2979,4.59951,2453.649,38.4909
2023-12-09T03:03:49,2420,42.8014,5.9826,13.2981,4.59957,2453.627,38.4913
2023-12-09T03:06:49,2420,42.8014,5.9826,13.2988,4.60108,2453.627,38.5049
2023-12-09T03:09:49,2420,42.8014,5.9826,13.2987,4.59998,2453.582,38.4946
2023-12-09T03:12:49,2420,42.8014,5.9826,13.2992,4.60039,2453.582,38.4980
2023-12-09T03:15:49,2420,42.8014,5.9826,13.2980,4.59974,2453.604,38.4930
2023-12-09T03:18:49,2420,42.8014,5.9826,13.2982,4.59944,2453.672,38.4900
2023-12-09T03:21:49,2420,42.8014,5.9826,13.2979,4.59962,2453.687,38.4919
2023-12-09T03:24:49,2420,42.8014,5.9826,13.3000,4.59997,2453.627,38.4932
2023-12-09T03:27:49,2420,42.8014,5.9826,13.2982,4.59964,2453.627,38.4919
2023-12-09T03:30:49,2420,42.8014,5.9826,13.2979,4.59992,2453.649,38.4948
2023-12-09T03:33:49,2420,42.8014,5.9826,13.2983,4.60209,2453.649,38.5149
2023-12-09T03:36:49,2420,42.8014,5.9826,13.2979,4.59974,2453.612,38.4931
2023-12-09T03:39:49,2420,42.8014,5.9826,13.2981,4.59952,2453.672,38.4908
2023-12-09T03:42:49,2420,42.8014,5.9826,13.2988,4.60055,2453.627,38.4998
2023-12-09T03:45:49,2420,42.8014,5.9826,13.3091,4.60219,2453.627,38.5052
2023-12-09T03:48:49,2420,42.8014,5.9826,13.3187,4.60076,2453.649,38.4820
2023-12-09T03:51:49,2420,42.8014,5.9826,13.3027,4.60084,2453.627,38.4988
2023-12-09T03:54:49,2420,42.8014,5.9826,13.3076,4.60210,2453.649,38.5057
2023-12-09T03:57:49,2420,42.8014,5.9826,13.3109,4.60098,2453.641,38.4920
2023-12-09T04:00:49,2420,42.8014,5.9826,13.2988,4.60123,2453.672,38.5062
2023-12-09T04:03:49,2420,42.8014,5.9826,13.3938,4.60115,2453.664,38.4114
2023-12-09T04:06:49,2420,42.8014,5.9826,13.3443,4.60114,2453.664,38.4603
2023-12-09T04:09:49,2420,42.8014,5.9826,13.3289,4.60050,2453.664,38.4695
2023-12-09T04:12:49,2420,42.8014,5.9826,13.3972,4.60022,2453.672,38.3992
2023-12-09T04:15:49,2420,42.8014,5.9826,13.3372,4.59992,2453.641,38.4558
2023-12-09T04:18:49,2420,42.8014,5.9826,13.3129,4.60017,2453.649,38.4823
2023-12-09T04:21:49,2420,42.8014,5.9826,13.3176,4.60152,2453.649,38.4904
2023-12-09T04:24:49,2420,42.8014,5.9826,13.3049,4.60032,2453.687,38.4916
2023-12-09T04:27:49,2420,42.8014,5.9826,13.3132,4.60003,2453.687,38.4807
2023-12-09T04:30:49,2420,42.8014,5.9826,13.3030,4.60111,2453.649,38.5009
2023-12-09T04:33:49,2420,42.8014,5.9826,13.3012,4.60297,2453.687,38.5203
2023-12-09T04:36:49,2420,42.8014,5.9826,13.3054,4.60253,2453.709,38.5120
2023-12-09T04:39:49,2420,42.8014,5.9826,13.3029,4.60085,2453.649,38.4987
2023-12-09T04:42:49,2420,42.8014,5.9826,13.3032,4.60220,2453.672,38.5110
2023-12-09T04:45:49,2420,42.8014,5.9826,13.2992,4.60195,2453.649,38.5126
2023-12-09T04:48:49,2420,42.8014,5.9826,13.3004,4.60269,2453.695,38.5185
2023-12-09T04:51:49,2420,42.8014,5.9826,13.2995,4.60056,2453.717,38.4993
2023-12-09T04:54:49,2420,42.8014,5.9826,13.2986,4.60014,2453.695,38.4961
2023-12-09T04:57:49,2420,42.8014,5.9826,13.3013,4.59994,2453.649,38.4916
2023-12-09T05:00:49,2420,42.8014,5.9826,13.3002,4.59996,2453.687,38.4929
2023-12-09T05:03:49,2420,42.8014,5.9826,13.3041,4.60059,2453.672,38.4950
2023-12-09T05:06:49,2420,42.8014,5.9826,13.3080,4.60219,2453.695,38.5062
2023-12-09T05:09:49,2420,42.8014,5.9826,13.3147,4.60017,2453.709,38.4805
2023-12-09T05:12:49,2420,42.8014,5.9826,13.3261,4.59993,2453.672,38.4668
2023-12-09T05:15:49,2420,42.8014,5.9826,13.3064,4.60121,2453.672,38.4985
2023-12-09T05:18:49,2420,42.8014,5.9826,13.3155,4.60098,2453.695,38.4873
2023-12-09T05:21:49,2420,42.8014,5.9826,13.3140,4.60018,2453.627,38.4813
2023-12-09T05:24:49,2420,42.8014,5.9826,13.3016,4.60092,2453.672,38.5006
2023-12-09T05:27:49,2420,42.8014,5.9826,13.3151,4.60372,2453.695,38.5136
2023-12-09T05:30:50,2420,42.8014,5.9826,13.3326,4.60219,2453.649,38.4818
2023-12-09T05:33:49,2420,42.8014,5.9826,13.3197,4.60195,2453.672,38.4924
2023-12-09T05:36:49,2420,42.8014,5.9826,13.3126,4.60269,2453.672,38.5063
2023-12-09T05:39:49,2420,42.8014,5.9826,13.3403,4.60500,2453.687,38.5007
2023-12-09T05:42:49,2420,42.8014,5.9826,13.3224,4.60328,2453.687,38.5023
2023-12-09T05:45:49,2420,42.8014,5.9826,13.3113,4.60271,2453.649,38.5078
2023-12-09T05:48:49,2420,42.8014,5.9826,13.3142,4.60186,2453.687,38.4969
2023-12-09T05:51:49,2420,42.8014,5.9826,13.3157,4.60216,2453.695,38.4983
2023-12-09T05:54:49,2420,42.8014,5.9826,13.3170,4.60437,2453.649,38.5178
2023-12-09T05:57:49,2420,42.8014,5.9826,13.3103,4.60256,2453.649,38.5074
2023-12-09T06:00:50,2420,42.8014,5.9826,13.3102,4.60183,2453.672,38.5006
2023-12-09T06:03:49,2420,42.8014,5.9826,13.3202,4.60327,2453.672,38.5043
2023-12-09T06:06:49,2420,42.8014,5.9826,13.3255,4.60147,2453.687,38.4820
2023-12-09T06:09:49,2420,42.8014,5.9826,13.3172,4.60257,2453.709,38.5007
2023-12-09T06:12:49,2420,42.8014,5.9826,13.3076,4.60088,2453.672,38.4942
2023-12-09T06:15:49,2420,42.8014,5.9826,13.3071,4.60086,2453.672,38.4946
2023-12-09T06:18:49,2420,42.8014,5.9826,13.3015,4.60221,2453.687,38.5128
2023-12-09T06:21:49,2420,42.8014,5.9826,13.3155,4.60147,2453.664,38.4920
2023-12-09T06:24:49,2420,42.8014,5.9826,13.3138,4.60212,2453.649,38.4998
2023-12-09T06:27:49,2420,42.8014,5.9826,13.3100,4.60097,2453.695,38.4927
2023-12-09T06:30:49,2420,42.8014,5.9826,13.3074,4.60098,2453.649,38.4954
2023-12-09T06:33:49,2420,42.8014,5.9826,13.3065,4.60240,2453.672,38.5097
2023-12-09T06:36:49,2420,42.8014,5.9826,13.3149,4.60098,2453.649,38.4880
2023-12-09T06:39:49,2420,42.8014,5.9826,13.3073,4.60109,2453.687,38.4965
2023-12-09T06:42:49,2420,42.8014,5.9826,13.3152,4.60191,2453.664,38.4964
2023-12-09T06:45:49,2420,42.8014,5.9826,13.3132,4.60022,2453.672,38.4824
2023-12-09T06:48:49,2420,42.8014,5.9826,13.3086,4.60065,2453.672,38.4911
2023-12-09T06:51:49,2420,42.8014,5.9826,13.3082,4.60107,2453.672,38.4954
2023-12-09T06:54:49,2420,42.8014,5.9826,13.3076,4.60074,2453.649,38.4930
2023-12-09T06:57:49,2420,42.8014,5.9826,13.3132,4.60206,2453.649,38.4999
2023-12-09T07:00:49,2420,42.8014,5.9826,13.3061,4.60201,2453.649,38.5065
2023-12-09T07:03:49,2420,42.8014,5.9826,13.3058,4.60154,2453.649,38.5023
2023-12-09T07:06:49,2420,42.8014,5.9826,13.3069,4.60056,2453.672,38.4918
2023-12-09T07:09:49,2420,42.8014,5.9826,13.3088,4.60026,2453.627,38.4872
2023-12-09T07:12:49,2420,42.8014,5.9826,13.3077,4.59986,2453.649,38.4845
2023-12-09T07:15:49,2420,42.8014,5.9826,13.3069,4.59988,2453.649,38.4855
2023-12-09T07:18:49,2420,42.8014,5.9826,13.3088,4.60112,2453.649,38.4953
2023-12-09T07:21:49,2420,42.8014,5.9826,13.3017,4.59985,2453.664,38.4904
2023-12-09T07:24:49,2420,42.8014,5.9826,13.3021,4.60011,2453.649,38.4924
2023-12-09T07:27:49,2420,42.8014,5.9826,13.3024,4.59980,2453.672,38.4892
2023-12-09T07:30:49,2420,42.8014,5.9826,13.3046,4.59971,2453.649,38.4862
2023-12-09T07:33:49,2420,42.8014,5.9826,13.3004,4.59979,2453.672,38.4910
2023-12-09T07:36:49,2420,42.8014,5.9826,13.3033,4.60005,2453.649,38.4906
2023-12-09T07:39:50,2420,42.8014,5.9826,13.3062,4.60002,2453.627,38.4875
2023-12-09T07:42:49,2420,42.8014,5.9826,13.3034,4.59985,2453.604,38.4887
2023-12-09T07:45:49,2420,42.8014,5.9826,13.3025,4.59955,2453.641,38.4868
2023-12-09T07:48:49,2420,42.8014,5.9826,13.2999,4.59964,2453.687,38.4902
2023-12-09T07:51:49,2420,42.8014,5.9826,13.3002,4.59959,2453.649,38.4894
2023-12-09T07:54:49,2420,42.8014,5.9826,13.3027,4.59987,2453.604,38.4896
2023-12-09T07:57:49,2420,42.8014,5.9826,13.3016,4.59970,2453.664,38.4891
2023-12-09T08:00:49,2420,42.8014,5.9826,13.3045,4.59982,2453.664,38.4873
2023-12-09T08:03:49,2420,42.8014,5.9826,13.2999,4.59980,2453.649,38.4916
2023-12-09T08:06:49,2420,42.8014,5.9826,13.3049,4.59988,2453.672,38.4875
2023-12-09T08:09:49,2420,42.8014,5.9826,13.3029,4.59965,2453.627,38.4873
2023-12-09T08:12:49,2420,42.8014,5.9826,13.2990,4.59976,2453.604,38.4922
2023-12-09T08:15:49,2420,42.8014,5.9826,13.3002,4.59982,2453.672,38.4915
2023-12-09T08:18:49,2420,42.8014,5.9826,13.3007,4.59999,2453.649,38.4927
2023-12-09T08:21:49,2420,42.8014,5.9826,13.3044,4.59955,2453.649,38.4848
2023-12-09T08:24:49,2420,42.8014,5.9826,13.3020,4.59974,2453.649,38.4891
2023-12-09T08:27:49,2420,42.8014,5.9826,13.3001,4.59961,2453.649,38.4897
2023-12-09T08:30:49,2420,42.8014,5.9826,13.3039,4.59940,2453.627,38.4839
2023-12-09T08:33:50,2420,42.8014,5.9826,13.3023,4.59968,2453.649,38.4882
2023-12-09T08:36:49,2420,42.8014,5.9826,13.3017,4.59973,2453.672,38.4892
2023-12-09T08:39:49,2420,42.8014,5.9826,13.2997,4.59980,2453.664,38.4919
2023-12-09T08:42:49,2420,42.8014,5.9826,13.3027,4.59962,2453.649,38.4872
2023-12-09T08:45:49,2420,42.8014,5.9826,13.3029,4.59965,2453.649,38.4873
2023-12-09T08:48:49,2420,42.8014,5.9826,13.3038,4.59967,2453.649,38.4865
2023-12-09T08:51:49,2420,42.8014,5.9826,13.3031,4.59957,2453.649,38.4863
2023-12-09T08:54:49,2420,42.8014,5.9826,13.3021,4.59952,2453.649,38.4869
2023-12-09T08:57:49,2420,42.8014,5.9826,13.3010,4.59974,2453.627,38.4900
2023-12-09T09:00:49,2420,42.8014,5.9826,13.2993,4.59957,2453.649,38.4901
2023-12-09T09:03:49,2420,42.8014,5.9826,13.2997,4.59939,2453.627,38.4880
2023-12-09T09:06:49,2420,42.8014,5.9826,13.3029,4.59939,2453.627,38.4849
2023-12-09T09:09:49,2420,42.8014,5.9826,13.3010,4.59952,2453.649,38.4879
2023-12-09T09:12:49,2420,42.8014,5.9826,13.2988,4.59959,2453.627,38.4908
2023-12-09T09:15:49,2420,42.8014,5.9826,13.2988,4.59954,2453.649,38.4903
2023-12-09T09:18:49,2420,42.8014,5.9826,13.2986,4.59942,2453.627,38.4894
2023-12-09T09:21:49,2420,42.8014,5.9826,13.2991,4.59940,2453.627,38.4888
2023-12-09T09:24:49,2420,42.8014,5.9826,13.2986,4.59926,2453.649,38.4879
2023-12-09T09:27:49,2420,42.8014,5.9826,13.2983,4.59924,2453.649,38.4880
2023-12-09T09:30:49,2420,42.8014,5.9826,13.2982,4.59923,2453.627,38.4881
2023-12-09T09:33:49,2420,42.8014,5.9826,13.2983,4.59932,2453.649,38.4887
2023-12-09T09:36:49,2420,42.8014,5.9826,13.2985,4.59925,2453.657,38.4879
2023-12-09T09:39:49,2420,42.8014,5.9826,13.2988,4.59920,2453.627,38.4871
2023-12-09T09:42:49,2420,42.8014,5.9826,13.2978,4.59923,2453.649,38.4884
2023-12-09T09:45:49,2420,42.8014,5.9826,13.2985,4.59922,2453.627,38.4877
2023-12-09T09:48:49,2420,42.8014,5.9826,13.2985,4.59921,2453.649,38.4875
2023-12-09T09:51:49,2420,42.8014,5.9826,13.2979,4.59920,2453.627,38.4880
2023-12-09T09:54:49,2420,42.8014,5.9826,13.2979,4.59920,2453.604,38.4879
2023-12-09T09:57:49,2420,42.8014,5.9826,13.2982,4.59911,2453.627,38.4869
2023-12-09T10:00:50,2420,42.8014,5.9826,13.2976,4.59917,2453.649,38.4881
2023-12-09T10:03:49,2420,42.8014,5.9826,13.2979,4.59916,2453.672,38.4876
2023-12-09T10:06:49,2420,42.8014,5.9826,13.2979,4.59925,2453.627,38.4884
2023-12-09T10:09:49,2420,42.8014,5.9826,13.2979,4.59914,2453.627,38.4875
2023-12-09T10:12:49,2420,42.8014,5.9826,13.2979,4.59915,2453.664,38.4876
2023-12-09T10:15:49,2420,42.8014,5.9826,13.2976,4.59915,2453.649,38.4878
2023-12-09T10:18:49,2420,42.8014,5.9826,13.2976,4.59917,2453.649,38.4881
2023-12-09T10:21:49,2420,42.8014,5.9826,13.2973,4.59911,2453.627,38.4878
2023-12-09T10:24:49,2420,42.8014,5.9826,13.2975,4.59913,2453.627,38.4877
2023-12-09T10:27:49,2420,42.8014,5.9826,13.2979,4.59910,2453.649,38.4871
2023-12-09T10:30:49,2420,42.8014,5.9826,13.2978,4.59910,2453.604,38.4872
2023-12-09T10:33:49,2420,42.8014,5.9826,13.2979,4.59908,2453.590,38.4869
2023-12-09T10:36:49,2420,42.8014,5.9826,13.2973,4.59909,2453.627,38.4876
2023-12-09T10:39:49,2420,42.8014,5.9826,13.2973,4.59912,2453.604,38.4878
2023-12-09T10:42:49,2420,42.8014,5.9826,13.2978,4.59910,2453.604,38.4871
2023-12-09T10:45:49,2420,42.8014,5.9826,13.2981,4.59914,2453.604,38.4873
2023-12-09T10:48:49,2420,42.8014,5.9826,13.2982,4.59914,2453.627,38.4872
2023-12-09T10:51:49,2420,42.8014,5.9826,13.2976,4.59913,2453.627,38.4876
2023-12-09T10:54:49,2420,42.8014,5.9826,13.2979,4.59913,2453.627,38.4873
2023-12-09T10:57:49,2420,42.8014,5.9826,13.2973,4.59911,2453.612,38.4877
2023-12-09T11:00:49,2420,42.8014,5.9826,13.2976,4.59911,2453.641,38.4875
2023-12-09T11:03:49,2420,42.8014,5.9826,13.2976,4.59910,2453.627,38.4874
2023-12-09T11:06:49,2420,42.8014,5.9826,13.2973,4.59914,2453.627,38.4880
2023-12-09T11:09:49,2420,42.8014,5.9826,13.2982,4.59915,2453.590,38.4873
2023-12-09T11:12:49,2420,42.8014,5.9826,13.2973,4.59908,2453.627,38.4875
2023-12-09T11:15:49,2420,42.8014,5.9826,13.2978,4.59910,2453.627,38.4871
2023-12-09T11:18:49,2420,42.8014,5.9826,13.2978,4.59911,2453.604,38.4873
2023-12-09T11:21:49,2420,42.8014,5.9826,13.2976,4.59907,2453.604,38.4871
2023-12-09T11:24:49,2420,42.8014,5.9826,13.2974,4.59908,2453.627,38.4874
2023-12-09T11:27:49,2420,42.8014,5.9826,13.2975,4.59906,2453.604,38.4872
2023-12-09T11:30:49,2420,42.8014,5.9826,13.2973,4.59901,2453.627,38.4869
2023-12-09T11:33:49,2420,42.8014,5.9826,13.2974,4.59908,2453.604,38.4874
2023-12-09T11:36:49,2420,42.8014,5.9826,13.2976,4.59913,2453.604,38.4876
2023-12-09T11:39:49,2420,42.8014,5.9826,13.2975,4.59912,2453.649,38.4877
2023-12-09T11:42:49,2420,42.8014,5.9826,13.2975,4.59914,2453.627,38.4879
2023-12-09T11:45:49,2420,42.8014,5.9826,13.2975,4.59910,2453.604,38.4875
2023-12-09T11:48:49,2420,42.8014,5.9826,13.2975,4.59906,2453.567,38.4871
2023-12-09T11:51:49,2420,42.8014,5.9826,13.2977,4.59903,2453.604,38.4867
2023-12-09T11:54:49,2420,42.8014,5.9826,13.2973,4.59906,2453.627,38.4873
2023-12-09T11:57:49,2420,42.8014,5.9826,13.2974,4.59916,2453.604,38.4881
2023-12-09T12:00:49,2420,42.8014,5.9826,13.2973,4.59913,2453.582,38.4879
2023-12-09T12:03:49,2420,42.8014,5.9826,13.2972,4.59909,2453.559,38.4877
2023-12-09T12:06:49,2420,42.8014,5.9826,13.2980,4.59904,2453.604,38.4864
2023-12-09T12:09:49,2420,42.8014,5.9826,13.2974,4.59908,2453.567,38.4874
2023-12-09T12:12:49,2420,42.8014,5.9826,13.2975,4.59910,2453.627,38.4875
2023-12-09T12:15:49,2420,42.8014,5.9826,13.2977,4.59906,2453.604,38.4870
2023-12-09T12:18:49,2420,42.8014,5.9826,13.2977,4.59915,2453.627,38.4878
2023-12-09T12:21:49,2420,42.8014,5.9826,13.2978,4.59903,2453.604,38.4865
2023-12-09T12:24:49,2420,42.8014,5.9826,13.2975,4.59902,2453.627,38.4867
2023-12-09T12:27:49,2420,42.8014,5.9826,13.2975,4.59915,2453.612,38.4879
2023-12-09T12:30:49,2420,42.8014,5.9826,13.2972,4.59917,2453.641,38.4885
2023-12-09T12:33:49,2420,42.8014,5.9826,13.2978,4.59921,2453.604,38.4883
2023-12-09T12:36:49,2420,42.8014,5.9826,13.2973,4.59917,2453.612,38.4883
2023-12-09T12:39:49,2420,42.8014,5.9826,13.2974,4.59917,2453.627,38.4882
2023-12-09T12:42:49,2420,42.8014,5.9826,13.2978,4.59916,2453.627,38.4878
2023-12-09T12:45:49,2420,42.8014,5.9826,13.2975,4.59915,2453.649,38.4879
2023-12-09T12:48:49,2420,42.8014,5.9826,13.2972,4.59911,2453.649,38.4878
2023-12-09T12:51:49,2420,42.8014,5.9826,13.2978,4.59915,2453.649,38.4877
2023-12-09T12:54:49,2420,42.8014,5.9826,13.2975,4.59912,2453.649,38.4877
2023-12-09T12:57:49,2420,42.8014,5.9826,13.2978,4.59909,2453.649,38.4871
2023-12-09T13:00:49,2420,42.8014,5.9826,13.2973,4.59909,2453.672,38.4875
2023-12-09T13:03:49,2420,42.8014,5.9826,13.2979,4.59914,2453.612,38.4874
2023-12-09T13:06:49,2420,42.8014,5.9826,13.2977,4.59914,2453.649,38.4876
2023-12-09T13:09:49,2420,42.8014,5.9826,13.2976,4.59913,2453.649,38.4876
2023-12-09T13:12:49,2420,42.8014,5.9826,13.2981,4.59923,2453.649,38.4881
2023-12-09T13:15:49,2420,42.8014,5.9826,13.2976,4.59911,2453.672,38.4874
2023-12-09T13:18:49,2420,42.8014,5.9826,13.2976,4.59911,2453.649,38.4875
2023-12-09T13:21:49,2420,42.8014,5.9826,13.2973,4.59909,2453.649,38.4875
2023-12-09T13:24:49,2420,42.8014,5.9826,13.2972,4.59908,2453.649,38.4876
2023-12-09T13:27:49,2420,42.8014,5.9826,13.2975,4.59911,2453.649,38.4875
2023-12-09T13:30:49,2420,42.8014,5.9826,13.2972,4.59917,2453.649,38.4884
2023-12-09T13:33:49,2420,42.8014,5.9826,13.2975,4.59909,2453.709,38.4874
2023-12-09T13:36:49,2420,42.8014,5.9826,13.2973,4.59912,2453.664,38.4879
2023-12-09T13:39:49,2420,42.8014,5.9826,13.2971,4.59915,2453.672,38.4883
2023-12-09T13:42:49,2420,42.8014,5.9826,13.2973,4.59909,2453.649,38.4876
2023-12-09T13:45:49,2420,42.8014,5.9826,13.2975,4.59911,2453.612,38.4877
2023-12-09T13:48:49,2420,42.8014,5.9826,13.2977,4.59911,2453.649,38.4874
2023-12-09T13:51:49,2420,42.8014,5.9826,13.2978,4.59913,2453.657,38.4874
2023-12-09T13:54:49,2420,42.8014,5.9826,13.2975,4.59910,2453.672,38.4875
2023-12-09T13:57:49,2420,42.8014,5.9826,13.2978,4.59928,2453.649,38.4889
2023-12-09T14:00:49,2420,42.8014,5.9826,13.2977,4.59909,2453.635,38.4872
2023-12-09T14:03:49,2420,42.8014,5.9826,13.2977,4.59911,2453.672,38.4874
2023-12-09T14:06:49,2420,42.8014,5.9826,13.2977,4.59921,2453.649,38.4883
2023-12-09T14:09:49,2420,42.8014,5.9826,13.2978,4.59915,2453.672,38.4876
2023-12-09T14:12:49,2420,42.8014,5.9826,13.2980,4.59918,2453.672,38.4877
2023-12-09T14:15:49,2420,42.8014,5.9826,13.2973,4.59913,2453.672,38.4879
2023-12-09T14:18:49,2420,42.8014,5.9826,13.2975,4.59920,2453.672,38.4884
2023-12-09T14:21:49,2420,42.8014,5.9826,13.2980,4.59922,2453.695,38.4881
2023-12-09T14:24:49,2420,42.8014,5.9826,13.2977,4.59912,2453.672,38.4875
2023-12-09T14:27:49,2420,42.8014,5.9826,13.2974,4.59919,2453.672,38.4884
2023-12-09T14:30:49,2420,42.8014,5.9826,13.2975,4.59913,2453.687,38.4877
2023-12-09T14:33:49,2420,42.8014,5.9826,13.2975,4.59926,2453.680,38.4889
2023-12-09T14:36:49,2420,42.8014,5.9826,13.2975,4.59919,2453.635,38.4883
2023-12-09T14:39:49,2420,42.8014,5.9826,13.2985,4.59913,2453.695,38.4868
2023-12-09T14:42:49,2420,42.8014,5.9826,13.2975,4.59918,2453.709,38.4882
2023-12-09T14:45:49,2420,42.8014,5.9826,13.2978,4.59931,2453.717,38.4892
2023-12-09T14:48:49,2420,42.8014,5.9826,13.2981,4.59937,2453.702,38.4894
2023-12-09T14:51:49,2420,42.8014,5.9826,13.2979,4.59913,2453.695,38.4873
2023-12-09T14:54:49,2420,42.8014,5.9826,13.2973,4.59920,2453.717,38.4885
2023-12-09T14:57:49,2420,42.8014,5.9826,13.2979,4.59912,2453.695,38.4873
2023-12-09T15:00:50,2420,42.8014,5.9826,13.2978,4.59913,2453.695,38.4875
2023-12-09T15:03:49,2420,42.8014,5.9826,13.2978,4.59913,2453.695,38.4874
2023-12-09T15:06:49,2420,42.8014,5.9826,13.2985,4.59923,2453.717,38.4876
2023-12-09T15:09:49,2420,42.8014,5.9826,13.2978,4.59917,2453.695,38.4878
2023-12-09T15:12:49,2420,42.8014,5.9826,13.2978,4.59913,2453.717,38.4874
2023-12-09T15:15:49,2420,42.8014,5.9826,13.2991,4.59918,2453.672,38.4866
2023-12-09T15:18:49,2420,42.8014,5.9826,13.2976,4.59923,2453.717,38.4886
2023-12-09T15:21:49,2420,42.8014,5.9826,13.2978,4.59920,2453.740,38.4880
2023-12-09T15:24:49,2420,42.8014,5.9826,13.2977,4.59920,2453.762,38.4882
2023-12-09T15:27:49,2420,42.8014,5.9826,13.2986,4.59920,2453.732,38.4873
2023-12-09T15:30:49,2420,42.8014,5.9826,13.2985,4.59920,2453.702,38.4875
2023-12-09T15:33:49,2420,42.8014,5.9826,13.2980,4.59920,2453.695,38.4879
2023-12-09T15:36:49,2420,42.8014,5.9826,13.2975,4.59916,2453.717,38.4880
2023-12-09T15:39:49,2420,42.8014,5.9826,13.2980,4.59913,2453.740,38.4872
2023-12-09T15:42:49,2420,42.8014,5.9826,13.2976,4.59915,2453.754,38.4877
2023-12-09T15:45:49,2420,42.8014,5.9826,13.2978,4.59911,2453.725,38.4872
2023-12-09T15:48:49,2420,42.8014,5.9826,13.2978,4.59911,2453.740,38.4873
2023-12-09T15:51:49,2420,42.8014,5.9826,13.2976,4.59917,2453.740,38.4879
2023-12-09T15:54:49,2420,42.8014,5.9826,13.2978,4.59920,2453.717,38.4882
2023-12-09T15:57:49,2420,42.8014,5.9826,13.2975,4.59909,2453.740,38.4873
2023-12-09T16:00:49,2420,42.8014,5.9826,13.2976,4.59914,2453.740,38.4877
2023-12-09T16:03:49,2420,42.8014,5.9826,13.2978,4.59909,2453.725,38.4870